Time,TemperatureF,DewpointF,PressureIn,WindDirection,WindDirectionDegrees,WindSpeedMPH,WindSpeedGustMPH,Humidity,HourlyPrecipIn,Conditions,Clouds,dailyrainin,SolarRadiationWatts/m^2,SoftwareType,DateUTC
2013-01-17 00:00:00,43.0,18.0,-100.00,WNW,292,10.0,16.0,36,0.00,,,0.00,0.000000,,2013-01-17 08:00:00,
2013-01-17 00:22:00,43.0,18.0,-100.00,WNW,292,10.0,16.0,36,0.00,,,0.00,0.000000,,2013-01-17 08:22:00,
2013-01-17 00:32:00,43.0,18.0,-100.00,WNW,292,10.0,16.0,36,0.00,,,0.00,0.000000,,2013-01-17 08:32:00,
2013-01-17 00:43:00,43.0,18.0,-100.00,WNW,292,10.0,16.0,36,0.00,,,0.00,0.000000,,2013-01-17 08:43:00,
2013-01-17 00:52:00,43.0,18.0,-100.00,WNW,292,10.0,16.0,36,0.00,,,0.00,0.000000,,2013-01-17 08:52:00,
2013-01-17 01:00:00,43.0,14.0,-100.00,WNW,294,10.0,17.0,31,0.00,,,0.00,0.000000,,2013-01-17 09:00:00,
2013-01-17 01:33:00,43.0,14.0,-100.00,WNW,294,10.0,17.0,31,0.00,,,0.00,0.000000,,2013-01-17 09:33:00,
2013-01-17 01:42:00,43.0,14.0,-100.00,WNW,294,10.0,17.0,31,0.00,,,0.00,0.000000,,2013-01-17 09:42:00,
2013-01-17 01:52:00,43.0,14.0,-100.00,WNW,294,10.0,17.0,31,0.00,,,0.00,0.000000,,2013-01-17 09:52:00,
2013-01-17 04:00:00,41.0,10.0,-100.00,WNW,285,9.0,0.0,27,-99.99,,,-99.99,0.000000,,2013-01-17 12:00:00,
2013-01-17 04:23:00,41.0,10.0,-100.00,WNW,285,9.0,0.0,27,-99.99,,,-99.99,0.000000,,2013-01-17 12:23:00,
2013-01-17 04:33:00,41.0,10.0,-100.00,WNW,285,9.0,0.0,27,-99.99,,,-99.99,0.000000,,2013-01-17 12:33:00,
2013-01-17 04:43:00,41.0,10.0,-100.00,WNW,285,9.0,0.0,27,-99.99,,,-99.99,0.000000,,2013-01-17 12:43:00,
2013-01-17 04:53:00,41.0,10.0,-100.00,WNW,285,9.0,0.0,27,-99.99,,,-99.99,0.000000,,2013-01-17 12:53:00,
2013-01-17 05:00:00,39.0,12.0,-100.00,WNW,294,9.0,15.0,32,0.00,,,-99.99,0.000000,,2013-01-17 13:00:00,
2013-01-17 05:33:00,39.0,12.0,-100.00,WNW,294,9.0,15.0,32,0.00,,,-99.99,0.000000,,2013-01-17 13:33:00,
2013-01-17 05:43:00,39.0,12.0,-100.00,WNW,294,9.0,15.0,32,0.00,,,-99.99,0.000000,,2013-01-17 13:43:00,
2013-01-17 05:53:00,39.0,12.0,-100.00,WNW,294,9.0,15.0,32,0.00,,,-99.99,0.000000,,2013-01-17 13:53:00,
2013-01-17 06:00:00,40.0,13.0,-100.00,WNW,294,10.0,16.0,32,0.00,,,-99.99,0.000000,,2013-01-17 14:00:00,
2013-01-17 06:33:00,40.0,13.0,-100.00,WNW,294,10.0,16.0,32,0.00,,,-99.99,0.000000,,2013-01-17 14:33:00,
2013-01-17 06:43:00,40.0,13.0,-100.00,WNW,294,10.0,16.0,32,0.00,,,-99.99,0.000000,,2013-01-17 14:43:00,
2013-01-17 06:53:00,40.0,13.0,-100.00,WNW,294,10.0,16.0,32,0.00,,,-99.99,0.000000,,2013-01-17 14:53:00,
2013-01-17 07:00:00,39.0,12.0,-100.00,WNW,290,9.0,14.0,32,0.00,,,-99.99,0.000000,,2013-01-17 15:00:00,
2013-01-17 07:33:00,39.0,12.0,-100.00,WNW,290,9.0,14.0,32,0.00,,,-99.99,0.000000,,2013-01-17 15:33:00,
2013-01-17 07:43:00,39.0,12.0,-100.00,WNW,290,9.0,14.0,32,0.00,,,-99.99,0.000000,,2013-01-17 15:43:00,
2013-01-17 07:53:00,39.0,12.0,-100.00,WNW,290,9.0,14.0,32,0.00,,,-99.99,0.000000,,2013-01-17 15:53:00,
2013-01-17 08:00:00,41.0,11.0,-100.00,WNW,297,10.0,15.0,29,0.00,,,-99.99,0.000000,,2013-01-17 16:00:00,
2013-01-17 08:33:00,41.0,11.0,-100.00,WNW,297,10.0,15.0,29,0.00,,,-99.99,0.000000,,2013-01-17 16:33:00,
2013-01-17 08:44:00,41.0,11.0,-100.00,WNW,297,10.0,15.0,29,0.00,,,-99.99,0.000000,,2013-01-17 16:44:00,
2013-01-17 08:53:00,41.0,11.0,-100.00,WNW,297,10.0,15.0,29,0.00,,,-99.99,0.000000,,2013-01-17 16:53:00,
2013-01-17 09:00:00,46.0,11.0,-100.00,West,263,2.0,15.0,24,0.00,,,-99.99,89.000000,,2013-01-17 17:00:00,
2013-01-17 09:33:00,46.0,11.0,-100.00,West,263,2.0,15.0,24,0.00,,,-99.99,89.000000,,2013-01-17 17:33:00,
2013-01-17 09:43:00,46.0,11.0,-100.00,West,263,2.0,15.0,24,0.00,,,-99.99,89.000000,,2013-01-17 17:43:00,
2013-01-17 09:53:00,46.0,11.0,-100.00,West,263,2.0,15.0,24,0.00,,,-99.99,89.000000,,2013-01-17 17:53:00,
2013-01-17 10:00:00,56.0,18.0,-100.00,ESE,104,0.0,7.0,22,0.00,,,-99.99,339.000000,,2013-01-17 18:00:00,
2013-01-17 10:23:00,56.0,18.0,-100.00,ESE,104,0.0,7.0,22,0.00,,,-99.99,339.000000,,2013-01-17 18:23:00,
2013-01-17 10:34:00,56.0,18.0,-100.00,ESE,104,0.0,7.0,22,0.00,,,-99.99,339.000000,,2013-01-17 18:34:00,
2013-01-17 10:44:00,56.0,18.0,-100.00,ESE,104,0.0,7.0,22,0.00,,,-99.99,339.000000,,2013-01-17 18:44:00,
2013-01-17 10:53:00,56.0,18.0,-100.00,ESE,104,0.0,7.0,22,0.00,,,-99.99,339.000000,,2013-01-17 18:53:00,
2013-01-17 13:00:00,65.0,9.0,-100.00,SE,141,1.0,6.0,11,-99.99,,,-99.99,829.000000,,2013-01-17 21:00:00,
2013-01-17 13:34:00,65.0,9.0,-100.00,SE,141,1.0,6.0,11,-99.99,,,-99.99,829.000000,,2013-01-17 21:34:00,
2013-01-17 13:43:00,65.0,9.0,-100.00,SE,141,1.0,6.0,11,-99.99,,,-99.99,829.000000,,2013-01-17 21:43:00,
2013-01-17 13:53:00,65.0,9.0,-100.00,SE,141,1.0,6.0,11,-99.99,,,-99.99,829.000000,,2013-01-17 21:53:00,
2013-01-17 14:23:00,66.0,3.0,-100.00,South,181,1.0,6.0,8,0.00,,,-99.99,822.000000,,2013-01-17 22:23:00,
2013-01-17 14:33:00,66.0,3.0,-100.00,South,181,1.0,6.0,8,0.00,,,-99.99,822.000000,,2013-01-17 22:33:00,
2013-01-17 15:33:00,67.0,1.0,-100.00,East,101,3.0,7.0,7,0.00,,,-99.99,761.000000,,2013-01-17 23:33:00,
2013-01-17 16:23:00,64.0,4.0,-100.00,SE,146,1.0,8.0,9,0.00,,,-99.99,603.000000,,2013-01-18 00:23:00,
2013-01-17 16:33:00,64.0,4.0,-100.00,SE,146,1.0,8.0,9,0.00,,,-99.99,603.000000,,2013-01-18 00:33:00,
2013-01-17 16:43:00,64.0,4.0,-100.00,SE,146,1.0,8.0,9,0.00,,,-99.99,603.000000,,2013-01-18 00:43:00,
2013-01-17 16:52:00,64.0,4.0,-100.00,SE,146,1.0,8.0,9,0.00,,,-99.99,603.000000,,2013-01-18 00:52:00,
2013-01-17 17:00:00,57.0,15.0,-100.00,WNW,286,8.0,11.0,19,0.00,,,-99.99,368.000000,,2013-01-18 01:00:00,
2013-01-17 17:33:00,57.0,15.0,-100.00,WNW,286,8.0,11.0,19,0.00,,,-99.99,368.000000,,2013-01-18 01:33:00,
2013-01-17 17:43:00,57.0,15.0,-100.00,WNW,286,8.0,11.0,19,0.00,,,-99.99,368.000000,,2013-01-18 01:43:00,
2013-01-17 17:52:00,57.0,15.0,-100.00,WNW,286,8.0,11.0,19,0.00,,,-99.99,368.000000,,2013-01-18 01:52:00,
2013-01-17 18:00:00,48.0,13.0,-100.00,WNW,289,12.0,13.0,24,0.00,,,-99.99,18.000000,,2013-01-18 02:00:00,
2013-01-17 18:33:00,48.0,13.0,-100.00,WNW,289,12.0,13.0,24,0.00,,,-99.99,18.000000,,2013-01-18 02:33:00,
2013-01-17 18:43:00,48.0,13.0,-100.00,WNW,289,12.0,13.0,24,0.00,,,-99.99,18.000000,,2013-01-18 02:43:00,
2013-01-17 18:53:00,48.0,13.0,-100.00,WNW,289,12.0,13.0,24,0.00,,,-99.99,18.000000,,2013-01-18 02:53:00,
2013-01-17 19:00:00,45.0,10.0,-100.00,WNW,295,11.0,16.0,24,0.00,,,-99.99,1.000000,,2013-01-18 03:00:00,
2013-01-17 19:33:00,45.0,10.0,-100.00,WNW,295,11.0,16.0,24,0.00,,,-99.99,1.000000,,2013-01-18 03:33:00,
2013-01-17 19:43:00,45.0,10.0,-100.00,WNW,295,11.0,16.0,24,0.00,,,-99.99,1.000000,,2013-01-18 03:43:00,
2013-01-17 19:52:00,45.0,10.0,-100.00,WNW,295,11.0,16.0,24,0.00,,,-99.99,1.000000,,2013-01-18 03:52:00,
2013-01-17 20:00:00,45.0,8.0,-100.00,WNW,288,10.0,15.0,22,0.00,,,-99.99,0.000000,,2013-01-18 04:00:00,
2013-01-17 20:33:00,45.0,8.0,-100.00,WNW,288,10.0,15.0,22,0.00,,,-99.99,0.000000,,2013-01-18 04:33:00,
2013-01-17 20:42:00,45.0,8.0,-100.00,WNW,288,10.0,15.0,22,0.00,,,-99.99,0.000000,,2013-01-18 04:42:00,
2013-01-17 20:53:00,45.0,8.0,-100.00,WNW,288,10.0,15.0,22,0.00,,,-99.99,0.000000,,2013-01-18 04:53:00,
2013-01-17 21:00:00,45.0,7.0,-100.00,West,280,10.0,16.0,21,0.00,,,-99.99,0.000000,,2013-01-18 05:00:00,
2013-01-17 21:22:00,45.0,7.0,-100.00,West,280,10.0,16.0,21,0.00,,,-99.99,0.000000,,2013-01-18 05:22:00,
2013-01-17 21:33:00,45.0,7.0,-100.00,West,280,10.0,16.0,21,0.00,,,-99.99,0.000000,,2013-01-18 05:33:00,
2013-01-17 21:43:00,45.0,7.0,-100.00,West,280,10.0,16.0,21,0.00,,,-99.99,0.000000,,2013-01-18 05:43:00,
2013-01-17 21:53:00,45.0,7.0,-100.00,West,280,10.0,16.0,21,0.00,,,-99.99,0.000000,,2013-01-18 05:53:00,
2013-01-17 22:00:00,43.0,8.0,-100.00,WNW,288,11.0,18.0,23,0.00,,,-99.99,0.000000,,2013-01-18 06:00:00,
2013-01-17 22:33:00,43.0,8.0,-100.00,WNW,288,11.0,18.0,23,0.00,,,-99.99,0.000000,,2013-01-18 06:33:00,
2013-01-17 22:43:00,43.0,8.0,-100.00,WNW,288,11.0,18.0,23,0.00,,,-99.99,0.000000,,2013-01-18 06:43:00,
2013-01-17 22:52:00,43.0,8.0,-100.00,WNW,288,11.0,18.0,23,0.00,,,-99.99,0.000000,,2013-01-18 06:52:00,
2013-01-17 23:00:00,42.0,9.0,-100.00,WNW,294,11.0,15.0,25,0.00,,,-99.99,0.000000,,2013-01-18 07:00:00,
2013-01-17 23:33:00,42.0,9.0,-100.00,WNW,294,11.0,15.0,25,0.00,,,-99.99,0.000000,,2013-01-18 07:33:00,
2013-01-17 23:42:00,42.0,9.0,-100.00,WNW,294,11.0,15.0,25,0.00,,,-99.99,0.000000,,2013-01-18 07:42:00,
2013-01-17 23:52:00,42.0,9.0,-100.00,WNW,294,11.0,15.0,25,0.00,,,-99.99,0.000000,,2013-01-18 07:52:00,